CSUNSAT1 (42715 NORAD) Tracking and Keplerian Element Data

This shows tracking and keplerian element data for the satellite.

Feedback or suggestion? Click here.




ElementValue
Catalog42715
NameCSUNSAT1
Epoch Orbit11248
Epoch Day125.26904075
Epoch Year2019
RAAN127.9321
Inclination51.6151
Eccentricity0.0004619
Argument of Perigee278.8566
Mean Anonmoly95.8002
Mean Motion16.45622418
Decay Rate0.15894941
L11 42715U 98067LW 19125.26904075 .15894941 12567-4 41505-3 0 9994
L22 42715 51.6151 127.9321 0004619 278.8566 95.8002 16.45622418112486

Live tracking and technical data element details for CSUNSAT1 (NORAD 42715). CSUNSAT1 can be tracked NOW for your location showing map with azimuth and elevation plus other details from your city location.

Track the satellite on the map from your city or location and see movement details for azimuth, elevation, latitude, longitude, range, height, and movement on the map or in text.







IsCatalogInMostPopularTable: catalog: 42715, numindb: 327
Update: records affected: 1



GetName: 42715 CSUNSAT1

Hit Count: updated at: Wed, 13 Nov 2019 17:39:11 GMT